Back to catalog

CZ-6A DEB

AlivePO
NORAD 61434·DEBRIS·🇨🇳 China

Launched Aug 6, 2024 from Taiyuan Satellite Launch Center

Loading…

Next Passes (next 24 hours)

TLE

FreshSource: Space-Track

Epoch: Sep 14, 2026, 00:07 UTC

1 61434U 24140ZB  26257.00554962  .00026946  00000-0  12425-2 0  9995
2 61434  89.0395 259.7822 0077660 147.9834 212.6164 15.17418248112323

Track CZ-6A DEB in real time with AllMySat

Download on the App Store